Location: Jefferson
(30.9666°N, 81.7901°W)
Time: 08:31:52
(UTC+00:00)

ARIANE 6 FM1 Upper Stage - Pass Details

Date: 28 September 2024
Orbit: 563 x 595 km, 62.0° (Epoch: 12 October)

Event Time Altitude Azimuth Distance (km) Brightness Sun altitude
Rises 23:35:05 0° 258° (WSW) 2,766 8.3 -5.1°
Reaches altitude 10° 23:38:34 10° 288° (WNW) 1,880 6.8 -5.8°
Maximum altitude 23:40:23 12° 313° (NW) 1,732 5.9 -6.2°
Drops below altitude 10° 23:42:13 10° 339° (NNW) 1,893 5.7 -6.6°
Sets 23:45:45 0° 9° (N) 2,805 6.1 -7.4°
